Tracking 28790 objects as of 19-Apr-2024
HD Live streaming from Space Station
objects crossing your sky now

ONEWEB-0595

Track ONEWEB-0595 now!
10-day predictions
ONEWEB-0595 is classified as:


NORAD ID: 54661
Int'l Code: 2022-166V
Perigee: 1,183.4 km
Apogee: 1,186.4 km
Inclination: 87.9 °
Period: 108.9 minutes
Semi major axis: 7555 km
RCS: Unknown
Launch date: December 8, 2022
Source: United Kingdom (UK)
Launch site: AIR FORCE EASTERN TEST RANGE (AFETR)
Your satellite tracking list
Your tracking list is empty




NASA's NSSDC Master Catalog

Two Line Element Set (TLE):
1 54661U 22166V   24109.89437871  .00000110  00000-0  23582-3 0  9997
2 54661  87.9311  41.0644 0002033  87.1890 272.9476 13.21827657 67263
Source of the keplerian elements: AFSPC